GEFSGL_500_meanwind_012.txt.gz
Wind_Speed
47 47 47 46 46 46 45 45 47 52 59 66 68 68 68 67 66 64 61 58 55 53 53 52 51 50 48 44 41 38 35 32 30 30 28 27 27 25 24 23 21 19 21
52 54 54 55 53 51 50 49 48 48 50 56 63 69 72 72 71 70 68 65 62 59 57 56 54 53 51 48 45 41 38 34 31 30 29 28 28 26 25 25 23 20 22
57 58 59 60 60 58 56 53 51 51 50 51 53 59 68 74 76 75 73 72 69 66 62 60 58 57 55 52 49 45 41 37 33 30 29 27 27 27 26 25 23 21 21
62 64 64 64 63 62 60 56 53 51 50 50 51 52 56 64 73 78 77 76 74 72 70 66 61 59 56 54 52 48 45 40 36 32 30 28 28 27 26 24 22 21 21
65 67 66 66 64 63 59 55 52 50 49 49 48 49 50 51 57 67 75 77 76 75 73 71 66 61 57 55 54 51 47 43 38 34 31 29 28 27 26 24 22 20 21
66 66 65 63 61 59 55 52 49 48 48 47 47 46 45 44 44 49 57 67 74 76 75 73 71 67 61 56 54 52 50 45 41 36 33 30 29 28 26 24 22 20 21
64 62 60 58 56 53 51 49 47 45 46 47 47 46 44 42 40 38 39 46 56 66 73 74 72 69 65 60 56 53 51 47 43 39 34 32 30 28 26 24 22 21 21
61 61 60 57 54 52 49 46 44 43 45 47 49 47 45 43 40 38 36 36 39 47 58 67 72 71 66 62 58 54 51 48 44 41 37 34 31 29 26 23 21 20 20
63 63 60 56 51 47 43 42 41 41 42 46 49 50 48 45 43 40 39 37 35 36 41 51 61 67 68 65 60 54 51 48 46 43 39 35 32 30 27 23 21 19 19
62 60 56 49 44 38 34 32 33 35 37 43 48 49 50 48 45 42 40 37 35 34 34 38 46 55 63 65 61 56 51 49 47 44 40 37 34 31 27 23 21 20 21
61 58 52 45 39 32 27 25 26 30 34 38 43 47 48 48 47 44 41 38 35 33 32 32 36 43 53 60 60 57 53 50 47 44 41 38 35 32 28 25 23 23 23
58 54 48 42 34 27 23 20 20 22 28 32 38 44 47 48 46 44 42 38 35 32 31 30 31 35 43 53 58 57 54 51 47 44 41 39 36 33 30 27 25 24 24
55 50 45 40 32 25 19 15 13 14 18 26 32 38 42 44 45 43 41 37 34 32 31 28 27 30 37 47 53 55 54 51 46 42 41 39 37 35 32 28 25 24 23
52 48 44 38 32 24 18 14 9 8 12 18 24 32 38 41 41 41 39 35 32 31 30 28 26 27 34 43 50 52 51 49 45 42 41 41 38 35 32 28 25 24 23
49 47 43 39 33 27 20 15 10 5 4 10 16 22 28 33 37 38 35 34 32 31 29 28 26 26 33 43 49 48 47 47 45 43 42 41 38 35 32 29 26 25 23
47 46 42 38 33 29 24 18 13 7 2 3 10 15 21 26 29 31 31 32 33 31 28 26 25 28 36 46 49 48 47 47 44 43 42 41 39 35 32 30 27 25 23
44 43 41 38 34 30 27 22 16 11 5 1 6 11 16 21 24 26 28 30 30 28 27 25 25 31 41 49 51 49 48 46 43 42 42 41 39 36 33 31 28 25 23
43 41 39 37 34 30 28 24 20 15 10 6 6 9 13 18 21 23 25 26 27 26 25 23 25 33 44 50 53 50 48 45 43 41 40 40 38 36 34 32 29 27 24
42 40 38 36 34 30 27 24 21 18 14 11 9 9 12 15 18 21 23 23 23 22 21 20 24 31 42 49 51 50 49 45 42 40 40 40 38 37 35 33 30 28 25
39 38 37 34 32 30 27 23 20 17 15 13 10 10 11 13 16 19 20 20 20 19 18 18 20 28 37 46 48 48 47 43 40 39 38 40 38 36 35 33 31 29 27
38 36 35 33 31 28 26 23 19 15 13 11 9 8 9 10 12 14 16 16 17 16 16 17 19 26 32 42 45 47 46 43 40 38 37 37 36 35 34 32 31 29 27
35 33 32 32 30 27 25 23 19 15 12 10 8 7 7 9 10 11 13 14 14 15 16 16 19 22 28 37 44 45 43 41 40 39 37 35 34 33 31 30 28 27 27
32 31 30 29 28 27 25 23 21 17 14 11 9 8 8 8 9 9 11 13 14 15 16 18 18 23 29 37 41 41 39 38 38 37 34 33 31 30 29 28 27 27 27
30 29 28 28 27 26 25 23 21 19 16 14 12 10 10 10 10 11 13 14 15 17 19 21 23 26 30 34 36 37 36 36 35 33 32 31 29 29 28 27 26 26 25
27 27 26 26 25 24 22 22 21 21 20 19 17 15 15 15 14 15 17 18 19 21 23 25 27 29 31 32 33 33 33 32 31 31 30 29 28 27 26 24 23 22 22
23 24 25 25 24 23 21 20 20 20 20 20 20 20 20 19 19 20 21 22 23 24 25 27 29 31 31 31 31 31 30 29 29 28 27 25 24 24 23 22 21 20 20

GEFSGL_500_meanwind_018.txt.gz
Wind_Speed
37 37 39 42 44 46 48 50 51 53 54 56 57 58 58 59 60 62 64 66 67 65 64 62 56 52 50 49 48 47 46 44 42 39 36 33 31 28 26 25 24 23 23
39 41 44 46 49 51 54 55 57 58 59 60 61 62 62 62 62 63 64 66 68 69 69 68 64 59 56 53 52 51 49 47 45 42 39 36 33 30 28 26 25 24 24
42 45 47 50 53 55 58 59 60 61 61 61 61 63 64 65 66 65 65 65 67 69 71 71 71 67 61 57 55 54 52 50 48 45 42 39 36 32 30 27 26 25 25
45 48 50 53 56 58 60 62 62 63 63 62 62 62 63 64 66 66 66 66 66 68 71 73 74 73 68 63 58 56 55 53 51 49 46 42 38 35 32 29 26 25 25
47 50 52 54 56 58 60 61 61 61 60 59 58 59 61 62 64 65 65 66 66 67 68 71 74 76 73 69 63 57 56 55 53 51 49 45 41 38 34 31 28 26 25
49 51 53 54 56 58 58 57 57 55 52 51 51 53 54 57 59 61 63 63 63 63 65 67 70 74 76 73 68 63 58 57 56 53 50 47 44 40 37 33 30 27 25
50 52 53 54 56 57 56 54 52 48 45 44 44 46 49 51 53 56 59 59 59 57 59 61 64 69 72 75 73 69 63 58 59 57 53 49 46 43 39 35 32 29 27
51 52 53 55 56 55 53 51 47 42 38 36 36 37 42 46 48 51 54 54 53 51 50 52 56 59 66 71 74 72 68 62 56 56 54 52 49 46 42 38 34 31 28
51 52 53 54 54 53 50 47 43 37 33 30 29 30 33 39 43 46 47 47 47 45 43 44 47 50 56 64 69 71 68 65 61 54 51 52 51 48 43 39 35 32 28
50 50 52 53 52 50 48 44 38 33 28 25 22 23 27 32 37 40 42 42 42 41 40 39 40 43 47 53 59 65 68 68 64 58 52 49 49 47 44 40 37 33 29
49 49 50 51 50 48 46 41 35 30 25 21 17 17 22 27 32 36 38 40 40 39 38 36 35 36 39 43 48 54 61 65 63 60 53 48 47 46 43 40 37 34 30
47 48 49 49 47 45 43 39 34 29 24 19 14 13 18 24 28 33 36 39 39 37 35 34 32 31 32 35 39 45 52 59 62 60 57 51 46 43 42 41 39 35 31
46 46 47 47 45 43 40 37 33 28 23 17 11 8 14 20 25 31 35 37 37 37 34 31 29 28 28 29 32 38 45 51 55 56 54 50 46 44 43 42 40 36 33
45 45 45 45 43 41 39 36 32 27 22 16 9 6 12 18 24 28 33 35 35 34 32 30 28 27 27 27 28 31 38 45 50 53 52 49 47 45 44 42 40 38 35
43 43 44 44 42 39 37 34 31 27 22 16 9 4 9 16 22 26 30 32 33 33 31 30 29 28 27 26 27 28 33 40 47 51 51 50 47 46 44 42 41 38 37
42 41 42 42 40 37 35 32 30 27 22 16 10 2 8 14 19 24 27 29 30 29 29 28 28 29 29 27 27 28 30 37 46 51 51 50 48 46 45 43 41 39 38
40 40 40 41 40 36 33 30 27 25 22 17 12 5 3 10 17 22 25 27 28 27 27 27 28 29 30 29 28 28 30 36 44 50 51 51 49 46 45 43 41 40 39
38 38 39 39 37 35 32 29 26 23 21 17 13 8 4 7 12 17 22 24 25 26 26 27 28 29 30 30 29 28 31 37 45 49 50 50 48 46 44 43 41 40 39
37 37 37 37 35 33 31 27 24 21 19 16 13 10 6 6 9 13 17 20 22 23 24 26 27 29 29 29 29 30 33 39 46 48 49 49 47 46 44 42 41 40 39
35 36 36 35 33 32 29 26 22 18 16 15 12 10 8 7 7 10 13 16 18 20 22 24 26 27 28 29 30 31 36 44 48 47 47 47 46 44 42 41 40 39 38
33 34 34 33 32 30 28 25 21 17 14 13 11 9 8 7 8 9 11 13 15 18 20 22 24 26 27 28 30 33 39 45 47 47 47 46 45 43 42 41 40 38 37
31 32 33 32 31 29 27 24 20 17 14 11 10 8 6 6 7 8 9 11 12 14 16 19 21 22 25 27 31 35 42 45 47 48 46 45 44 42 41 40 39 37 35
28 30 31 31 30 28 26 24 21 17 14 11 9 8 7 6 6 7 8 9 11 13 15 17 18 19 22 26 30 36 42 45 48 47 45 44 42 40 38 37 36 36 34
26 27 29 30 29 27 25 24 22 19 15 12 9 7 6 5 5 6 8 8 10 12 13 14 15 17 20 24 30 36 40 43 44 43 42 40 38 35 34 33 33 33 32
24 24 26 27 27 26 25 24 22 20 17 14 12 10 9 7 7 7 7 8 9 11 13 13 14 18 22 27 34 39 42 43 42 40 38 37 34 32 32 30 30 30 29
22 22 22 24 25 25 25 23 22 20 18 16 15 13 12 10 9 9 9 10 11 13 16 18 22 24 28 32 37 40 41 39 37 35 32 31 29 28 28 29 28 27 26

GEFSGL_500_meanwind_024.txt.gz
Wind_Speed
42 42 42 42 42 41 42 42 43 44 45 47 50 52 54 56 58 58 58 57 55 53 52 51 51 51 51 49 47 44 42 41 41 39 38 37 36 35 33 31 29 26 24
43 43 44 43 42 42 42 43 44 45 47 48 50 52 54 57 59 61 63 62 61 59 57 56 55 54 54 52 51 49 46 44 43 43 41 39 39 38 37 34 31 29 27
45 45 45 44 42 42 43 44 45 46 48 49 51 53 55 57 60 62 65 66 65 64 62 60 59 58 56 56 54 53 51 49 46 45 44 42 41 40 39 36 34 32 29
45 45 45 43 42 43 44 45 46 48 49 50 51 53 55 57 58 60 63 65 66 65 64 63 62 61 59 58 58 57 54 53 51 48 47 46 43 42 41 39 37 34 31
45 45 45 43 43 43 44 46 47 48 49 51 51 52 53 54 54 55 57 59 61 62 62 61 61 62 61 60 60 60 58 55 54 51 49 49 47 44 42 41 39 37 34
47 46 45 44 43 43 45 46 48 49 50 51 50 50 49 48 48 48 49 52 54 55 55 55 57 59 61 61 61 60 60 58 57 54 50 49 48 46 44 43 42 41 37
48 47 45 44 43 44 46 47 48 49 49 49 48 47 45 44 44 43 43 44 46 48 49 50 52 55 57 59 61 61 61 60 58 55 53 49 48 47 47 45 45 43 40
49 47 45 44 43 45 46 48 49 48 47 47 45 43 41 40 39 38 37 37 38 41 44 44 47 49 52 53 56 59 60 59 59 56 53 50 48 46 45 46 46 45 42
49 47 44 43 43 44 46 47 47 46 45 44 42 40 39 37 36 34 31 30 32 36 39 40 42 44 45 47 49 53 56 58 58 58 54 53 49 46 45 45 45 44 43
48 45 43 43 43 44 46 46 45 44 43 42 40 39 36 34 30 26 23 22 26 31 35 37 38 39 42 44 45 46 49 52 55 56 55 53 52 49 45 44 44 44 44
47 44 42 43 43 44 44 44 43 42 41 40 38 36 33 29 24 19 15 17 20 26 31 34 36 37 39 40 42 43 45 47 50 53 54 53 51 50 48 44 43 43 43
46 43 42 42 43 43 43 42 40 39 38 38 37 34 30 24 18 13 11 13 19 24 27 30 33 34 36 37 39 41 42 44 46 49 51 52 52 51 49 47 45 44 42
45 43 41 42 42 42 41 40 39 37 37 36 35 31 25 19 14 9 8 11 18 23 26 28 30 32 33 34 36 38 39 40 42 45 48 49 50 50 49 48 46 45 42
44 42 41 41 41 41 40 38 36 35 35 34 32 28 22 16 11 5 7 12 18 22 25 28 29 30 31 32 33 35 36 38 39 42 45 48 49 51 50 49 46 44 42
44 41 41 41 40 39 38 36 34 33 32 32 30 26 20 13 7 3 6 12 19 22 25 26 27 27 29 29 31 32 34 35 37 39 43 46 49 51 50 48 47 44 43
43 41 40 40 40 38 36 34 33 31 30 30 28 24 19 11 4 2 8 13 18 21 22 23 24 25 26 27 28 30 31 33 35 38 41 44 47 49 50 49 48 45 43
43 40 39 39 39 37 36 33 31 29 28 27 26 22 18 10 2 3 8 13 18 20 21 22 23 23 24 24 25 27 28 29 32 36 39 43 46 49 49 48 45 42 39
42 39 38 38 37 36 34 32 30 28 26 25 23 20 17 10 4 3 8 13 17 19 21 22 23 24 24 23 24 24 25 26 29 33 38 42 46 48 48 47 44 42 38
41 38 37 37 36 35 33 31 28 26 24 23 21 18 15 10 4 3 8 12 15 17 20 21 22 23 22 22 23 23 24 25 27 31 35 40 45 48 48 46 44 41 39
40 38 36 35 35 34 32 30 27 24 22 21 19 17 13 9 4 2 6 11 14 17 19 21 22 22 22 22 22 23 24 25 26 29 33 38 44 47 47 46 45 42 39
39 36 35 34 33 33 32 30 26 23 21 19 17 16 13 9 5 1 4 8 13 16 19 20 21 22 22 22 22 23 24 24 25 28 31 36 43 47 47 46 45 42 41
38 35 33 32 32 32 31 29 26 24 21 18 16 14 12 9 6 2 2 6 10 14 17 19 21 21 22 22 22 23 24 25 26 28 30 35 42 46 48 47 46 44 42
36 34 31 30 30 30 30 29 26 23 21 18 17 14 11 8 6 3 1 4 7 11 14 16 19 21 21 22 23 24 25 25 26 28 31 35 40 43 46 46 46 45 42
35 32 30 28 28 27 27 27 25 23 21 19 17 15 12 9 7 6 4 3 6 8 11 14 17 18 20 22 24 25 25 26 27 28 30 34 39 42 43 44 43 42 40
33 30 27 26 26 25 25 25 24 22 21 19 17 16 15 12 10 8 6 4 5 6 8 11 14 16 18 20 22 24 25 26 26 27 30 34 38 41 42 43 41 40 38
31 28 25 23 23 23 23 23 22 20 20 19 18 18 17 15 12 9 7 5 3 5 7 9 12 14 16 18 21 22 24 25 25 28 32 36 38 40 40 40 39 38 36

GEFSGL_500_meanwind_030.txt.gz
Wind_Speed
38 38 39 39 40 41 42 42 43 43 42 42 42 41 41 42 42 42 42 42 41 41 42 43 43 45 45 44 44 45 44 43 40 38 38 38 41 43 44 45 43 42 40
39 39 40 41 42 43 44 44 43 43 42 41 41 41 41 41 42 43 44 44 44 44 44 45 46 48 49 49 48 47 47 47 44 42 42 41 41 44 45 46 45 44 42
40 41 42 43 44 45 45 44 43 42 41 40 39 40 41 42 42 44 45 46 47 48 48 48 49 50 52 53 53 52 50 49 49 47 45 44 44 45 47 47 46 45 44
43 44 44 45 45 45 45 44 42 41 39 39 39 40 41 42 43 45 46 47 49 50 51 51 52 53 54 56 57 57 55 53 52 51 48 46 47 47 48 48 47 47 45
45 46 46 46 47 46 45 43 41 39 39 39 39 40 42 43 44 45 46 47 49 50 52 53 53 54 55 58 60 61 60 58 56 55 53 50 49 49 48 48 48 48 47
47 47 47 47 47 46 44 41 40 39 39 39 40 41 42 43 44 45 45 46 47 48 50 52 54 54 55 57 60 63 64 63 60 59 56 54 51 49 49 48 49 49 48
48 49 49 49 47 45 43 41 40 40 39 40 41 42 41 42 43 43 44 45 46 46 47 49 51 52 54 56 59 63 66 67 65 63 60 57 54 51 50 49 49 50 49
49 49 50 49 48 45 43 42 41 40 40 41 41 41 41 41 41 42 43 44 43 44 45 47 48 50 52 54 57 62 66 68 68 65 62 59 58 54 51 49 50 51 50
49 49 50 49 47 45 43 41 40 40 40 40 40 40 40 40 41 41 41 42 41 42 43 43 44 47 50 52 55 60 65 68 70 69 67 63 61 58 54 52 51 51 50
48 49 49 49 47 45 43 41 40 40 40 39 38 38 39 39 39 39 39 38 37 36 36 38 40 43 46 49 52 57 63 67 70 71 68 65 62 60 56 53 51 49 49
48 49 49 49 48 45 43 41 40 40 39 38 37 37 38 38 36 35 34 32 30 29 29 30 32 37 41 45 49 53 59 64 68 70 69 67 64 61 58 55 51 49 49
48 49 49 49 48 45 43 41 40 40 38 37 36 36 37 36 32 30 28 26 24 22 20 22 25 30 35 40 44 49 54 59 64 67 68 66 64 60 58 56 52 49 49
48 49 49 49 47 45 42 41 40 39 38 37 35 35 34 32 28 26 24 21 17 14 12 14 19 25 29 35 40 46 49 53 59 63 64 63 62 60 58 56 53 51 50
47 48 48 48 46 44 42 41 40 39 37 36 34 33 32 29 25 23 21 16 11 7 5 8 15 21 26 32 37 42 44 47 52 56 59 60 60 60 58 56 53 51 49
47 47 48 47 45 43 41 40 39 37 36 34 32 31 29 26 23 21 17 12 7 3 2 7 13 18 22 28 32 36 40 44 46 50 55 58 59 58 57 57 54 51 49
46 46 46 46 44 42 40 39 38 36 35 33 31 29 26 23 20 18 14 10 6 2 4 8 12 16 20 25 31 33 37 41 42 47 51 54 57 58 57 57 55 52 49
45 45 45 44 43 40 38 37 36 35 33 31 29 26 24 21 18 16 11 7 4 3 5 8 11 15 19 24 28 31 34 37 39 43 47 51 55 57 57 56 54 52 49
45 44 44 42 41 39 37 35 34 32 31 29 27 24 22 19 15 12 9 5 3 4 6 8 11 14 17 20 23 28 32 34 36 40 44 48 52 55 57 56 54 53 51
43 42 42 40 39 37 36 34 32 31 29 28 26 22 20 17 14 10 7 4 1 4 6 9 11 13 15 17 20 24 27 30 34 38 42 46 49 53 55 56 55 53 51
41 40 40 38 37 35 34 32 30 28 28 27 25 21 18 16 13 10 6 3 1 5 8 10 12 14 15 17 19 21 24 27 30 35 40 45 48 51 54 56 56 54 51
39 39 38 37 35 33 31 30 28 27 26 25 23 20 17 15 13 10 6 3 3 6 10 12 13 15 16 17 18 20 21 23 26 30 35 41 46 50 52 54 56 54 53
38 37 36 35 33 31 29 28 27 25 24 24 22 20 17 15 13 11 7 5 6 8 11 14 15 16 17 17 18 19 20 22 24 27 31 36 41 47 50 53 54 54 53
36 35 34 33 31 29 27 26 25 23 22 22 22 19 17 15 13 11 8 6 7 9 12 15 17 18 18 18 18 19 20 21 23 25 29 33 37 43 48 51 53 53 52
33 32 32 31 29 27 25 23 23 21 20 20 20 19 17 15 14 12 10 8 7 9 12 15 18 19 20 20 19 19 20 21 22 24 27 30 34 39 45 49 51 51 51
31 30 30 29 27 25 23 21 20 19 19 19 19 19 18 16 15 13 11 8 7 9 12 15 18 20 21 21 20 20 21 21 22 23 25 28 31 35 40 45 48 49 50
30 28 28 27 25 23 21 19 18 17 17 18 18 18 18 17 16 14 12 8 5 6 9 13 17 20 22 22 22 21 21 22 23 23 24 26 29 32 37 40 44 47 49

GEFSGL_500_meanwind_036.txt.gz
Wind_Speed
33 34 35 36 36 37 38 39 39 40 40 40 40 39 39 39 39 38 38 38 38 38 39 40 42 43 44 44 44 44 45 46 46 46 45 44 43 42 41 40 41 43 44
35 36 37 38 38 39 40 41 42 42 42 41 40 40 39 38 37 36 37 37 37 37 38 40 41 43 45 46 47 47 47 47 47 48 48 47 45 44 43 42 42 43 44
36 37 38 39 40 41 42 43 44 44 43 42 42 40 39 37 36 36 36 36 37 37 38 39 40 42 44 46 47 48 49 49 49 49 50 50 48 45 44 43 42 42 43
38 39 40 41 42 43 44 45 46 45 45 44 43 41 39 37 36 36 35 35 36 38 39 40 41 43 44 46 47 49 50 51 51 51 52 53 52 49 48 45 45 44 43
40 41 41 42 43 44 45 46 47 46 46 45 44 42 40 38 37 36 36 36 37 38 40 41 43 44 46 47 49 51 52 53 53 53 53 54 54 53 51 48 47 46 46
41 42 42 43 44 45 46 47 47 47 47 46 44 42 39 38 37 37 37 37 37 38 39 41 43 44 46 48 50 52 54 55 55 55 56 55 56 56 54 51 49 48 48
42 42 43 45 46 47 48 48 48 47 47 46 44 42 40 39 39 38 38 37 37 38 39 41 43 45 47 48 50 52 55 57 58 59 58 58 58 58 56 54 50 48 48
43 43 45 46 47 48 49 49 48 48 47 45 43 42 40 40 39 39 39 39 39 39 40 41 43 45 47 49 50 51 54 57 59 61 61 61 61 61 59 56 53 50 50
44 45 46 47 48 49 49 49 48 47 46 45 43 42 40 40 40 39 39 39 38 38 39 39 40 43 46 49 50 51 53 56 59 62 64 64 64 63 62 60 57 53 51
45 47 48 49 50 49 49 49 48 47 45 44 43 42 40 39 38 38 38 36 35 35 36 36 38 40 43 46 49 50 52 54 58 61 65 66 67 66 65 62 59 55 51
47 49 50 51 51 50 49 49 47 45 44 43 42 41 40 38 37 37 35 34 33 32 32 33 34 35 37 41 45 48 50 54 58 60 64 67 68 68 67 64 61 57 52
50 52 52 52 51 50 49 48 46 44 43 42 41 40 39 37 36 35 33 32 31 30 29 30 30 31 33 35 38 42 47 52 56 60 62 66 68 68 68 66 63 60 55
53 54 54 54 52 50 48 46 44 43 41 40 40 38 36 36 35 33 32 30 28 27 27 26 26 26 26 27 30 34 40 46 52 57 60 63 67 68 68 67 65 62 58
55 55 56 54 52 49 46 44 42 41 40 39 38 36 35 35 34 32 29 26 26 25 24 22 21 20 19 19 23 27 33 39 46 52 57 61 64 68 68 67 66 62 59
56 57 56 54 50 47 45 43 41 40 39 38 36 35 34 34 32 30 27 25 24 23 21 19 18 16 14 13 15 20 25 32 40 46 52 58 62 65 67 67 66 64 61
58 57 55 51 48 45 43 42 41 40 38 37 35 34 33 32 30 28 26 23 22 20 19 17 16 13 9 7 9 14 19 26 33 40 47 52 56 61 65 65 64 63 61
57 55 52 49 46 43 41 40 39 38 37 36 34 33 32 30 28 26 24 22 19 17 16 15 13 10 6 3 5 10 16 22 29 35 41 46 50 56 61 62 62 61 59
56 53 50 47 43 41 40 39 37 35 34 34 32 31 30 28 26 24 22 20 18 15 14 12 10 7 4 1 5 9 13 19 25 31 36 40 45 50 55 57 59 59 57
53 50 48 44 41 39 38 37 35 34 33 32 30 30 29 27 25 24 22 19 17 15 12 10 8 5 2 1 5 8 12 17 23 28 31 35 39 45 50 53 56 56 55
51 48 45 41 39 38 36 34 33 32 32 31 29 29 28 27 25 23 21 17 15 13 10 8 6 3 0 3 5 7 12 16 21 25 28 31 35 40 46 50 53 54 54
48 46 42 39 37 35 34 33 32 31 30 30 28 28 27 26 25 23 20 17 14 12 9 7 5 3 2 3 5 7 10 14 18 22 27 30 33 37 42 47 49 52 53
45 43 39 36 35 33 32 31 30 29 28 28 27 27 26 26 24 21 18 16 14 11 10 8 6 5 4 5 6 8 11 13 16 21 24 27 31 36 41 44 47 50 51
43 40 37 34 33 32 30 29 28 27 27 26 25 25 25 24 22 20 18 16 14 11 10 9 8 8 7 8 8 10 12 13 15 18 23 26 29 34 40 43 46 48 49
40 37 35 32 30 29 28 27 26 25 25 24 24 24 24 24 22 20 18 16 13 12 10 10 10 11 10 10 10 11 12 14 15 16 20 24 27 31 36 41 44 47 48
37 34 32 30 28 27 26 25 24 24 23 23 23 23 23 24 22 20 18 16 13 12 11 10 11 12 13 13 13 13 13 14 16 17 19 22 24 29 33 37 41 44 46
34 32 30 27 26 25 24 23 23 22 21 21 21 21 22 22 21 20 17 15 12 10 9 10 11 13 15 16 16 16 15 15 16 17 19 21 23 26 30 34 38 41 44

GEFSGL_500_meanwind_042.txt.gz
Wind_Speed
23 25 26 27 27 28 29 29 30 31 32 33 34 36 37 37 38 38 37 37 36 36 36 37 37 39 40 42 43 44 45 47 47 47 49 48 47 47 45 45 44 44 43
25 27 28 28 29 30 31 32 33 34 36 37 38 39 40 41 41 40 39 38 37 36 36 37 37 38 39 40 42 43 44 46 47 48 49 50 49 49 48 46 46 45 44
27 28 29 30 31 33 33 34 36 37 38 40 41 42 43 43 42 41 40 39 37 37 36 36 36 37 38 39 40 42 43 45 47 48 48 50 50 50 50 49 47 46 45
29 30 31 32 33 34 35 37 39 40 42 43 44 45 45 44 43 42 40 39 37 36 36 35 35 36 37 38 39 40 42 44 45 47 48 49 50 50 50 49 49 47 46
30 31 32 34 35 36 38 40 42 43 45 46 46 46 45 44 43 41 40 38 37 36 35 35 35 35 36 37 38 40 41 43 45 47 48 50 50 51 51 50 49 48 47
31 32 33 35 36 38 41 43 45 46 47 47 47 45 44 43 42 40 38 36 36 35 35 35 35 34 35 36 38 40 42 43 45 47 48 50 51 52 52 52 51 50 49
32 33 34 36 37 40 43 45 47 47 47 47 46 44 43 42 40 38 36 35 34 34 34 34 34 34 35 35 37 39 41 43 45 47 49 50 51 52 53 53 53 52 50
33 35 36 37 40 43 46 48 49 49 48 47 45 43 41 40 38 36 35 33 32 32 32 33 33 34 35 36 37 38 40 42 45 47 49 51 53 54 54 54 54 53 52
34 36 37 40 42 45 48 50 50 50 48 45 43 41 39 38 36 35 33 32 31 31 31 31 32 33 34 35 36 38 39 41 44 46 49 51 53 55 56 56 56 55 53
37 38 40 42 45 48 50 51 51 49 46 43 41 39 37 36 34 33 32 31 30 30 31 32 32 33 34 35 35 36 37 39 42 45 48 50 53 55 57 58 58 57 55
39 40 42 45 47 49 51 52 51 48 45 42 39 38 36 34 33 32 31 30 29 29 30 30 31 31 32 33 33 34 35 38 41 43 46 49 53 55 57 59 59 59 57
41 43 46 48 49 51 52 51 50 47 43 40 38 36 35 33 32 31 30 29 28 29 29 29 29 29 29 31 32 33 35 37 39 42 45 48 51 53 56 59 60 60 59
43 45 47 49 51 52 52 51 49 46 42 39 37 35 34 33 31 30 29 28 27 27 27 27 27 28 28 28 29 30 32 35 38 41 43 47 50 53 56 58 60 61 61
46 48 50 52 52 51 51 50 48 45 41 38 36 34 33 32 31 30 29 28 28 27 27 26 26 26 27 26 27 29 30 32 35 38 41 45 49 52 55 58 60 61 62
48 50 51 52 52 51 50 48 46 43 40 38 36 33 32 31 31 30 29 28 28 27 26 25 25 25 25 25 26 27 29 30 32 35 39 43 47 51 54 58 60 62 62
51 52 52 53 52 51 49 47 44 41 39 37 35 33 32 31 30 29 29 28 27 26 25 24 24 24 23 24 24 25 25 26 27 30 35 40 44 49 52 56 60 61 62
54 54 54 53 52 50 48 45 42 40 38 36 35 33 31 30 29 29 29 28 27 25 24 22 22 21 21 22 22 22 21 21 22 24 28 34 40 45 49 54 58 60 61
56 56 55 53 51 48 46 43 41 39 37 35 34 33 31 29 29 29 28 27 25 24 22 21 20 20 19 20 20 19 17 17 18 20 23 28 34 40 45 51 55 58 59
57 56 54 52 49 46 44 41 39 37 35 34 33 31 30 29 29 29 27 26 25 23 21 19 19 19 18 17 17 16 14 13 14 16 18 23 30 36 41 47 52 55 57
58 56 53 50 47 45 42 40 38 36 34 32 31 29 28 28 27 27 26 25 24 22 20 19 18 17 16 14 14 13 12 11 10 12 14 19 26 32 38 43 48 52 55
57 55 51 48 45 42 40 38 36 34 32 30 29 28 27 26 26 25 25 24 23 22 20 18 17 16 14 13 12 11 11 9 8 11 14 18 23 29 35 41 45 49 51
54 52 49 46 43 40 38 36 34 32 30 28 27 27 26 24 24 24 24 24 22 21 19 17 16 14 13 12 11 10 9 8 8 11 15 18 22 28 33 38 42 46 48
50 48 45 43 40 37 35 33 31 30 27 26 25 25 24 23 23 23 23 23 22 20 19 17 15 13 12 12 11 10 9 8 9 11 15 18 22 26 32 36 40 43 46
46 44 42 39 37 34 33 31 30 28 25 24 24 23 23 22 22 22 22 21 20 18 17 15 13 12 12 12 12 11 10 10 10 11 14 17 21 26 30 34 38 40 44
43 40 38 35 33 32 31 30 28 26 24 23 22 21 21 20 20 20 20 19 18 16 15 14 12 11 11 11 12 12 11 12 12 13 15 18 21 25 30 33 36 38 42
38 36 35 32 31 30 29 27 25 24 23 21 20 20 19 19 18 18 18 17 16 15 14 12 11 10 10 11 12 12 12 12 12 13 15 18 21 25 29 33 36 38 41

GEFSGL_500_meanwind_048.txt.gz
Wind_Speed
19 21 22 22 22 22 23 24 24 25 26 28 30 31 33 34 35 36 37 38 39 40 41 41 41 41 41 42 42 42 42 42 42 41 43 43 42 42 41 42 42 42 42
20 22 23 24 24 24 24 25 26 27 28 31 33 34 36 36 37 38 39 40 40 40 40 41 41 41 41 42 42 43 43 43 43 42 43 44 44 43 42 43 44 43 43
22 23 25 25 25 26 26 27 28 30 31 33 35 37 38 39 39 40 40 41 41 40 40 39 39 39 40 40 41 41 41 42 42 42 42 43 44 44 43 44 44 45 44
24 25 27 27 28 28 28 29 30 31 33 35 37 39 40 41 41 41 42 41 41 40 39 38 37 37 37 38 38 38 39 40 40 41 41 42 43 44 44 44 45 45 46
26 27 28 29 30 30 30 32 33 33 35 37 39 41 42 42 42 42 42 41 40 38 37 36 36 35 35 36 36 36 37 37 38 39 39 40 41 42 43 44 45 45 45
28 29 30 31 32 32 33 34 34 35 37 40 41 42 43 43 42 42 41 40 39 37 36 35 34 34 33 33 34 34 35 35 36 38 38 39 40 41 42 42 44 44 44
29 30 31 32 33 35 36 37 38 39 40 42 43 43 43 43 43 42 41 39 37 36 35 34 33 32 32 31 32 33 33 34 35 36 37 38 40 41 41 42 43 44 44
31 32 33 34 36 38 40 41 41 41 43 44 45 45 44 44 44 42 40 37 36 35 34 33 32 31 31 30 30 31 32 33 34 35 36 38 40 41 42 42 42 43 44
33 34 35 36 38 41 43 44 43 44 45 45 45 46 45 44 43 41 39 36 35 34 33 33 31 30 30 30 30 31 31 32 34 34 35 36 37 39 41 42 42 43 44
37 38 38 40 42 45 46 46 46 46 47 47 47 46 45 44 43 41 39 37 35 34 33 32 31 30 30 31 31 31 31 32 33 34 35 35 37 39 40 41 42 43 44
40 41 43 45 46 47 48 48 49 49 49 49 47 46 45 44 42 40 38 37 35 33 32 32 31 31 31 32 32 32 32 32 33 34 35 35 36 38 39 40 42 43 44
43 44 46 48 49 49 50 49 50 51 50 50 49 47 46 44 41 39 39 37 35 33 32 32 31 31 32 32 32 32 32 32 32 33 33 34 35 36 38 39 40 42 44
46 48 50 51 51 52 52 52 53 54 53 52 50 48 46 44 42 40 38 37 35 33 32 32 32 32 31 31 32 32 32 32 32 32 32 33 34 35 36 38 39 41 43
49 50 52 53 54 53 53 54 54 54 54 53 51 48 46 44 42 40 38 37 36 34 32 32 32 32 32 31 31 30 30 30 30 31 31 31 32 33 34 36 39 41 43
51 52 53 54 54 55 55 55 56 56 56 54 51 49 46 43 42 40 39 37 36 34 32 32 32 32 32 31 30 29 28 28 27 27 28 29 30 31 33 35 37 40 42
53 55 56 56 56 57 57 57 57 57 55 53 50 48 45 43 40 39 38 36 35 34 32 32 31 31 30 29 28 27 27 26 26 26 26 27 29 31 32 34 36 38 40
55 56 58 58 59 59 59 59 59 57 54 52 49 46 43 40 38 37 37 35 33 33 32 31 30 29 28 28 27 26 26 26 25 25 26 26 28 29 31 33 35 37 39
58 59 60 61 62 61 60 59 57 55 53 50 47 44 42 39 37 36 35 33 32 32 31 30 28 28 27 26 26 25 25 25 25 25 25 26 27 28 30 32 34 36 39
62 62 62 62 62 60 59 56 54 52 50 47 44 42 40 37 35 34 33 32 31 31 30 28 27 27 26 26 25 25 24 24 24 25 24 25 25 27 28 30 33 35 38
64 63 63 62 61 58 56 53 50 48 46 43 42 40 38 36 34 33 32 31 30 29 28 27 27 27 27 26 26 25 24 23 23 23 23 23 23 24 25 28 31 34 36
63 62 60 59 57 54 52 49 46 45 43 41 39 37 36 34 33 31 30 30 29 28 27 27 27 27 27 25 25 23 23 22 22 22 21 21 20 21 22 24 27 31 34
62 60 58 56 53 51 48 46 44 42 40 38 36 36 34 32 31 30 29 28 28 28 27 27 27 27 26 25 24 23 22 22 21 20 19 19 19 19 19 20 24 28 33
60 58 56 53 50 48 46 43 41 39 37 36 35 34 32 30 28 28 28 27 27 27 27 26 25 25 24 23 23 22 22 21 20 19 19 18 17 17 17 18 21 25 31
57 55 52 49 47 44 41 39 37 35 34 33 32 31 30 29 28 27 26 26 27 26 25 25 24 24 23 22 21 21 20 20 20 19 18 17 16 15 15 17 20 23 28
53 50 47 43 41 39 36 34 33 32 32 30 29 29 28 27 26 25 25 25 25 24 24 24 23 23 22 22 20 20 20 19 19 18 17 16 15 14 14 15 18 22 27
46 43 41 39 36 34 32 31 29 29 28 27 27 26 25 24 24 24 24 24 23 23 23 23 22 22 21 21 20 20 19 18 17 16 15 14 13 13 13 16 18 21 25